SEGLA BIKF-BIAR

Flight info

Callsign SEGLA
Flight time N/A
Altitude 5500
Route LUTER DCT ASKUR
Aircraft DA42/L-SBDGRY/S

Departure

Time N/A
Airport Keflavik International Airport (BIKF)

Arrival

Time 2026-05-03 20:40
Airport Akureyri International Airport (BIAR)
Time Latitude Longitude Altitude Speed Heading
2026-05-03 20:15 64.78627 -19.34491 5525 ft 163 kts 31°
2026-05-03 20:15 64.79572 -19.33011 5524 ft 163 kts 31°
2026-05-03 20:15 64.80513 -19.31536 5578 ft 159 kts 31°
2026-05-03 20:15 64.81392 -19.30152 5841 ft 150 kts 31°
2026-05-03 20:16 64.82271 -19.28775 5925 ft 153 kts 31°
2026-05-03 20:16 64.83153 -19.27389 6049 ft 153 kts 31°
2026-05-03 20:16 64.84039 -19.25996 6160 ft 154 kts 31°
2026-05-03 20:16 64.84929 -19.24594 6272 ft 154 kts 31°
2026-05-03 20:17 64.85790 -19.23080 6424 ft 154 kts 38°
2026-05-03 20:17 64.86569 -19.21403 6652 ft 151 kts 39°
2026-05-03 20:17 64.87350 -19.19725 6811 ft 153 kts 39°
2026-05-03 20:17 64.88143 -19.18045 6990 ft 153 kts 38°
2026-05-03 20:18 64.88939 -19.16367 7170 ft 154 kts 38°
2026-05-03 20:18 64.89469 -19.15250 7290 ft 154 kts 38°
2026-05-03 20:18 64.90271 -19.13562 7468 ft 155 kts 37°
2026-05-03 20:18 64.91079 -19.11860 7643 ft 156 kts 37°
2026-05-03 20:19 64.91890 -19.10150 7829 ft 157 kts 38°
2026-05-03 20:19 64.92705 -19.08428 7976 ft 159 kts 38°
2026-05-03 20:19 64.93557 -19.06632 7975 ft 168 kts 38°
2026-05-03 20:19 64.94732 -19.04146 7971 ft 174 kts 38°
2026-05-03 20:20 64.95341 -19.02854 7971 ft 175 kts 38°
2026-05-03 20:20 64.96247 -19.00932 7971 ft 175 kts 38°
2026-05-03 20:20 64.97142 -18.99032 7976 ft 175 kts 38°
2026-05-03 20:20 64.98060 -18.97086 7977 ft 175 kts 38°
2026-05-03 20:21 64.98966 -18.95160 7976 ft 175 kts 38°
2026-05-03 20:21 64.99871 -18.93234 7976 ft 175 kts 38°
2026-05-03 20:21 65.00763 -18.91335 7977 ft 175 kts 38°
2026-05-03 20:21 65.01668 -18.89406 7977 ft 175 kts 38°
2026-05-03 20:22 65.02573 -18.87476 7978 ft 175 kts 38°
2026-05-03 20:22 65.03478 -18.85543 7978 ft 175 kts 38°
2026-05-03 20:22 65.04394 -18.83586 7978 ft 175 kts 38°
2026-05-03 20:22 65.05283 -18.81683 7978 ft 175 kts 38°
2026-05-03 20:23 65.06186 -18.79750 7976 ft 175 kts 38°
2026-05-03 20:23 65.07088 -18.77816 7976 ft 175 kts 38°
2026-05-03 20:23 65.07990 -18.75882 7987 ft 175 kts 39°
2026-05-03 20:23 65.08890 -18.73949 7993 ft 174 kts 40°
2026-05-03 20:24 65.09785 -18.72023 7995 ft 174 kts 40°
2026-05-03 20:24 65.10680 -18.70097 7995 ft 173 kts 40°
2026-05-03 20:24 65.11574 -18.68172 7995 ft 173 kts 40°
2026-05-03 20:24 65.12468 -18.66246 7994 ft 173 kts 40°
2026-05-03 20:25 65.13360 -18.64320 7995 ft 173 kts 40°
2026-05-03 20:25 65.14252 -18.62394 7995 ft 174 kts 40°
2026-05-03 20:25 65.15146 -18.60460 7996 ft 174 kts 40°
2026-05-03 20:25 65.16042 -18.58523 7976 ft 175 kts 40°
2026-05-03 20:26 65.16967 -18.56519 7756 ft 184 kts 40°
2026-05-03 20:26 65.17904 -18.54482 7546 ft 181 kts 40°
2026-05-03 20:26 65.18824 -18.52483 7343 ft 178 kts 40°
2026-05-03 20:26 65.19737 -18.50503 7125 ft 177 kts 40°
2026-05-03 20:27 65.20643 -18.48534 6940 ft 176 kts 40°
2026-05-03 20:27 65.21542 -18.46580 6732 ft 174 kts 41°
2026-05-03 20:27 65.22433 -18.44638 6524 ft 173 kts 41°
2026-05-03 20:27 65.23317 -18.42710 6313 ft 171 kts 41°
2026-05-03 20:28 65.24190 -18.40800 6091 ft 169 kts 41°
2026-05-03 20:28 65.25044 -18.38936 6008 ft 162 kts 41°
2026-05-03 20:28 65.25863 -18.37152 6008 ft 157 kts 41°
2026-05-03 20:28 65.26663 -18.35403 6009 ft 155 kts 42°
2026-05-03 20:29 65.27452 -18.33673 6004 ft 153 kts 41°
2026-05-03 20:29 65.28231 -18.31963 6008 ft 152 kts 42°
2026-05-03 20:29 65.29006 -18.30261 6016 ft 152 kts 42°
2026-05-03 20:29 65.29790 -18.28541 6001 ft 152 kts 42°
2026-05-03 20:30 65.30568 -18.26829 6004 ft 152 kts 41°
2026-05-03 20:30 65.31349 -18.25110 6011 ft 152 kts 42°
2026-05-03 20:30 65.32129 -18.23393 6011 ft 153 kts 42°
2026-05-03 20:30 65.32911 -18.21670 6008 ft 153 kts 42°
2026-05-03 20:31 65.33688 -18.19956 6013 ft 152 kts 42°
2026-05-03 20:31 65.34462 -18.18247 6011 ft 151 kts 42°
2026-05-03 20:31 65.35236 -18.16537 6014 ft 151 kts 42°
2026-05-03 20:31 65.36001 -18.14846 6015 ft 152 kts 42°
2026-05-03 20:32 65.36775 -18.13134 6012 ft 151 kts 42°
2026-05-03 20:32 65.37545 -18.11427 6007 ft 150 kts 42°
2026-05-03 20:32 65.38311 -18.09729 6013 ft 150 kts 42°
2026-05-03 20:32 65.39075 -18.08033 6012 ft 150 kts 42°
2026-05-03 20:33 65.39843 -18.06360 6013 ft 149 kts 37°
2026-05-03 20:33 65.40772 -18.05315 6006 ft 149 kts 10°
2026-05-03 20:33 65.41807 -18.05419 6014 ft 149 kts 355°
2026-05-03 20:33 65.42848 -18.05589 6015 ft 150 kts 357°
2026-05-03 20:34 65.43891 -18.05712 6014 ft 150 kts 358°
2026-05-03 20:34 65.44929 -18.05800 6012 ft 149 kts 359°
2026-05-03 20:34 65.45959 -18.05871 6014 ft 148 kts 359°
2026-05-03 20:34 65.46989 -18.05950 6015 ft 148 kts 359°
2026-05-03 20:35 65.48015 -18.06027 6012 ft 148 kts 359°
2026-05-03 20:35 65.49065 -18.06104 5742 ft 155 kts 359°
2026-05-03 20:35 65.50167 -18.06182 5353 ft 161 kts 358°
2026-05-03 20:35 65.51287 -18.06263 4948 ft 160 kts 358°
2026-05-03 20:36 65.52390 -18.06342 4540 ft 157 kts 359°
2026-05-03 20:36 65.53473 -18.06422 4137 ft 154 kts 359°
2026-05-03 20:36 65.54536 -18.06499 3745 ft 151 kts 360°
2026-05-03 20:36 65.55549 -18.06410 3378 ft 140 kts
2026-05-03 20:37 65.56461 -18.06298 2917 ft 125 kts
2026-05-03 20:37 65.57297 -18.06270 2575 ft 119 kts
2026-05-03 20:37 65.58116 -18.06291 2190 ft 118 kts
2026-05-03 20:37 65.58918 -18.06321 1837 ft 116 kts
2026-05-03 20:38 65.59700 -18.06303 1545 ft 106 kts
2026-05-03 20:38 65.60428 -18.06334 1197 ft 104 kts 359°
2026-05-03 20:38 65.61111 -18.06436 1001 ft 93 kts 358°
2026-05-03 20:38 65.61759 -18.06508 784 ft 94 kts 358°
2026-05-03 20:39 65.62382 -18.06611 628 ft 81 kts 359°
2026-05-03 20:39 65.62920 -18.06684 473 ft 76 kts 358°
2026-05-03 20:39 65.63446 -18.06796 344 ft 76 kts 358°
2026-05-03 20:39 65.63987 -18.06894 201 ft 78 kts 360°
2026-05-03 20:40 65.64522 -18.06994 54 ft 74 kts 359°
2026-05-03 20:40 65.64958 -18.07073 14 ft 37 kts 353°
2026-05-03 20:40 65.65136 -18.07104 13 ft 16 kts 355°
2026-05-03 20:40 65.65240 -18.07126 9 ft 14 kts 354°
2026-05-03 20:41 65.65325 -18.07142 10 ft 12 kts 355°
2026-05-03 20:41 65.65419 -18.07161 9 ft 14 kts 354°
2026-05-03 20:41 65.65480 -18.07213 10 ft 9 kts 287°
2026-05-03 20:41 65.65476 -18.07367 12 ft 9 kts 264°
2026-05-03 20:42 65.65452 -18.07418 12 ft 7 kts 169°
2026-05-03 20:42 65.65440 -18.07488 12 ft 4 kts 335°
2026-05-03 20:42 65.65449 -18.07485 12 ft 0 kts 13°